Regional Weather Roundup
Issued by NWS Boston, MA

Current Version | Previous Version | Graphics & Text | Print | Product List | Glossary On
Versions: 1 2 3 4 5 6 7 8 9 10 11 12 13 14 15 16 17 18 19 20 21 22 23 24 25 26 27 28 29 30 31 32 33 34 35 36 37 38 39 40 41 42 43 44 45 46 47 48 49 50
000
ASUS41 KBOX 312004
RWRBOX

REGIONAL WEATHER ROUNDUP
NATIONAL WEATHER SERVICE BOSTON/NORTON MA
400 PM EDT SAT OCT 31 2020

NOTE:  "FAIR" INDICATES FEW OR NO CLOUDS BELOW 12,000 FEET WITH NO
SIGNIFICANT WEATHER AND/OR OBSTRUCTIONS TO VISIBILITY.

MAZALL-312100-
EASTERN MASSACHUSETTS

CITY           SKY/WX    TMP DP  RH WIND       PRES   REMARKS
BOSTON         MOSUNNY   41  22  46 SW7       30.51S
BEVERLY        SUNNY     42  23  46 W3        30.49F
LAWRENCE       SUNNY     42  22  44 SW6       30.51S
BEDFORD        SUNNY     39  20  46 SW6       30.49F
BLUE HILL        N/A     38  22  52 SW5       30.47F
NORWOOD        SUNNY     43  22  43 CALM      30.50F
MARSHFIELD     SUNNY     45  21  39 W5        30.50S
PLYMOUTH       SUNNY     44  20  38 W6        30.50S
TAUNTON        SUNNY     46  22  38 CALM      30.50F
NEW BEDFORD    SUNNY     46  23  40 SE6       30.49F
$$

MAZALL-312100-
CAPE COD AND THE ISLANDS

CITY           SKY/WX    TMP DP  RH WIND       PRES   REMARKS
FALMOUTH       NOT AVBL
HYANNIS        SUNNY     47  28  47 N3        30.49S
CHATHAM        PTSUNNY   47  29  49 VRB6      30.51R
PROVINCETOWN   SUNNY     44  28  53 W6        30.52R
NANTUCKET      SUNNY     48  28  46 E6        30.50S
MARTHAS VNYRD  SUNNY     47  23  38 S5        30.50S
$$

MAZALL-312100-
CENTRAL AND WESTERN MASSACHUSETTS

CITY           SKY/WX    TMP DP  RH WIND       PRES   REMARKS
WORCESTER      SUNNY     39  23  52 SW5       30.46S
FITCHBURG      SUNNY     42  24  49 SE8       30.48F
ORANGE         SUNNY     40  28  62 S3        30.48F
SPRINGFIELD    MOSUNNY   42  24  48 S3        30.48S
WESTFIELD      SUNNY     42  23  46 S3        30.48F
NORTH ADAMS    SUNNY     43  22  43 CALM      30.44F
PITTSFIELD     SUNNY     41  22  46 S6        30.42S
$$

RIZALL-312100-
RHODE ISLAND

CITY           SKY/WX    TMP DP  RH WIND       PRES   REMARKS
PROVIDENCE     MOSUNNY   45  43  93 VRB3      30.51S
NEWPORT        SUNNY     44  23  43 S6        30.50S
BLOCK ISLAND   MOSUNNY   45  29  53 SE5       30.51S
SMITHFIELD     SUNNY     42  22  44 CALM      30.49F
WESTERLY       SUNNY     45  25  45 S3        30.51S
$$

CTZALL-312100-
CONNECTICUT

CITY           SKY/WX    TMP DP  RH WIND       PRES   REMARKS
BRADLEY INTL   MOSUNNY   43  22  43 S5        30.49F
HARTFORD       SUNNY     44  21  40 CALM      30.50F
BRIDGEPORT     SUNNY     45  25  45 S3        30.50F
DANBURY        SUNNY     45  22  40 SE7       30.47F
GROTON         SUNNY     45  29  53 S5        30.51S
NEW HAVEN      SUNNY     47  21  35 SW6       30.50F
CHESTER        FAIR      45  16  31 S9        30.49S
MERIDEN        SUNNY     45  20  36 VRB5      30.50S
WILLIMANTIC    SUNNY     43  25  49 SE5       30.50S
OXFORD         SUNNY     44  20  38 VRB7      30.47F
$$

MEZ002-015-021-024-NHZ003-005-008-011-012-014-VTZ005-008-312100-
NORTHERN NEW ENGLAND

CITY           SKY/WX    TMP DP  RH WIND       PRES   REMARKS
PORTLAND ME    SUNNY     43  17  35 S8        30.48S
BANGOR ME      MOSUNNY   43   5  20 VRB5      30.45R
CONCORD NH     SUNNY     44  15  31 SW6       30.47S
MANCHESTER NH  SUNNY     42  23  46 S7        30.47S
NASHUA NH      SUNNY     42  26  53 VRB3      30.49F
PORTSMOUTH NH  SUNNY     43  18  36 S5        30.47S
JAFFREY NH     SUNNY     38  23  55 VRB3      30.45S
KEENE NH       SUNNY     40  26  57 SW7       30.47F
BURLINGTON VT  SUNNY     43  17  35 S12       30.41F
MT. WASHINGTON MOSUNNY   18  -6  35 W16         N/A  WCI   3
$$

NYZ052-076-312100-
EASTERN NEW YORK

CITY           SKY/WX    TMP DP  RH WIND       PRES   REMARKS
ALBANY         MOSUNNY   40  21  46 SW6       30.47F
NEW YORK CITY  MOSUNNY   46  24  42 S9        30.49S
$$

ANZALL-312100-
MARINE OBSERVATIONS

STATION/POSITION TIME  TEMP    WIND        PRES    VSBY  WAVE
                       AIR SEA DIR/SP/G                  HT/PER
                 (UTC) (F)     (DEG/KT/KT) (MB)    (MI)  (FT/S)
BOSTON BUOY      1950   42 54  240/  8/ 14 1033.4F         6/10
BUZZARDS BAY     1900             CALM     1034.1F
NANTUCKET SOUND  1950      56  180/  2/  6   N/A           1/ 4
MASS BAY-STELLWA 1904   42 53  230/  8/ 12 1032.6S  1 7/8  5/11
ISLE OF SHOALS   1900   40     210/  7/  9 1032.3F
S OF BLOCK IS    1926      60                N/A           5/11
$$

......................KEY.........................
  SKY/WX - SKY CONDITION/PRESENT WEATHER
  TMP    - TEMPERATURE IN FAHRENHEIT
  DWPT   - DEWPOINT IN FAHRENHEIT
  RH     - RELATIVE HUMIDITY IN PERCENT
  WIND   - DIRECTION AND SPEED IN MPH
  PRES   - MEAN SEA LEVEL PRESSURE IN INCHES OF HG
  WCI    - WIND CHILL INDEX
  VSB    - VISIBILITY IN MILES
  HX     - HEAT INDEX
  TC     - TEMPERATURE IN CELSIUS
  VRB    - VARIABLE WIND DIRECTION
  N/A    - NOT AVAILABLE



USA.gov is the U.S. government's official web portal to all federal, state and local government web resources and services.